Location: Abyssinia Baptist Church
(32.7840°N, 96.7578°W)
Time: 06:41:27
(UTC+00:00)

H-2A R/B - Pass Details

Date: 03 July 2022
Orbit: 577 x 651 km, 98.5° (Epoch: 07 August)

Event Time Altitude Azimuth Distance (km) Brightness Sun altitude
Rises 03:10:29 0° 3° (N) 2,939 6.1 -16.5°
Reaches altitude 10° 03:12:47 10° 355° (N) 2,036 5.4 -16.9°
Maximum altitude 03:16:54 38° 287° (WNW) 983 3.6 -17.5°
Drops below altitude 10° 03:21:02 10° 220° (SW) 2,047 4.7 -18.1°
Sets 03:23:21 0° 212° (SSW) 2,956 5.4 -18.5°
